Time,TemperatureF,DewpointF,PressureIn,WindDirection,WindDirectionDegrees,WindSpeedMPH,WindSpeedGustMPH,Humidity,HourlyPrecipIn,Conditions,Clouds,dailyrainin,SoftwareType,DateUTC
2013-03-10 00:01:00,39.0,35.0,-100.00,SE,135,0.0,2.0,85,-99.99,,,-99.99,,2013-03-10 08:01:00,
2013-03-10 00:11:00,39.0,35.0,-100.00,SE,135,0.0,2.0,85,-99.99,,,-99.99,,2013-03-10 08:11:00,
2013-03-10 00:21:00,38.0,35.0,-100.00,East,90,1.0,3.0,86,-99.99,,,-99.99,,2013-03-10 08:21:00,
2013-03-10 00:31:00,38.0,35.0,-100.00,East,90,1.0,3.0,86,-99.99,,,-99.99,,2013-03-10 08:31:00,
2013-03-10 00:42:00,38.0,35.0,-100.00,East,90,1.0,3.0,86,-99.99,,,-99.99,,2013-03-10 08:42:00,
2013-03-10 00:51:00,38.0,34.0,-100.00,SE,135,1.0,2.0,87,-99.99,,,-99.99,,2013-03-10 08:51:00,
2013-03-10 01:01:00,38.0,34.0,-100.00,SE,135,1.0,2.0,87,-99.99,,,-99.99,,2013-03-10 09:01:00,
2013-03-10 01:11:00,38.0,35.0,-100.00,East,90,1.0,2.0,88,-99.99,,,-99.99,,2013-03-10 09:11:00,
2013-03-10 01:31:00,37.0,34.0,-100.00,East,90,1.0,2.0,87,-99.99,,,-99.99,,2013-03-10 09:31:00,
2013-03-10 01:52:00,36.0,34.0,-100.00,SE,135,1.0,1.0,91,-99.99,,,-99.99,,2013-03-10 09:52:00,
2013-03-10 03:01:00,36.0,34.0,-100.00,SE,135,1.0,1.0,91,-99.99,,,-99.99,,2013-03-10 10:01:00,
2013-03-10 03:11:00,36.0,34.0,-100.00,South,180,0.0,2.0,91,-99.99,,,-99.99,,2013-03-10 10:11:00,
2013-03-10 03:32:00,36.0,34.0,-100.00,East,90,0.0,1.0,91,-99.99,,,-99.99,,2013-03-10 10:32:00,
2013-03-10 04:11:00,36.0,34.0,-100.00,East,90,2.0,2.0,92,-99.99,,,-99.99,,2013-03-10 11:11:00,
2013-03-10 04:31:00,36.0,34.0,-100.00,NW,315,0.0,1.0,92,-99.99,,,-99.99,,2013-03-10 11:31:00,
2013-03-10 04:52:00,35.0,33.0,-100.00,South,180,1.0,1.0,94,-99.99,,,-99.99,,2013-03-10 11:52:00,
2013-03-10 05:01:00,35.0,33.0,-100.00,South,180,1.0,1.0,94,-99.99,,,-99.99,,2013-03-10 12:01:00,
2013-03-10 05:11:00,36.0,34.0,-100.00,East,90,1.0,2.0,94,-99.99,,,-99.99,,2013-03-10 12:11:00,
2013-03-10 05:31:00,36.0,34.0,-100.00,SE,135,0.0,2.0,94,-99.99,,,-99.99,,2013-03-10 12:31:00,
2013-03-10 05:52:00,35.0,34.0,-100.00,SE,135,0.0,1.0,95,-99.99,,,-99.99,,2013-03-10 12:52:00,
2013-03-10 06:01:00,35.0,34.0,-100.00,SE,135,0.0,1.0,95,-99.99,,,-99.99,,2013-03-10 13:01:00,
2013-03-10 06:11:00,35.0,34.0,-100.00,North,0,0.0,1.0,95,-99.99,,,-99.99,,2013-03-10 13:11:00,
2013-03-10 06:31:00,35.0,34.0,-100.00,East,90,1.0,1.0,96,-99.99,,,-99.99,,2013-03-10 13:31:00,
2013-03-10 06:52:00,36.0,35.0,-100.00,SW,225,1.0,1.0,96,-99.99,,,-99.99,,2013-03-10 13:52:00,
2013-03-10 07:01:00,36.0,35.0,-100.00,SW,225,1.0,1.0,96,-99.99,,,-99.99,,2013-03-10 14:01:00,
2013-03-10 07:11:00,36.0,35.0,-100.00,South,180,0.0,1.0,96,-99.99,,,-99.99,,2013-03-10 14:11:00,
2013-03-10 07:32:00,36.0,35.0,-100.00,East,90,1.0,2.0,95,-99.99,,,-99.99,,2013-03-10 14:32:00,
2013-03-10 07:52:00,37.0,35.0,-100.00,South,180,0.0,1.0,95,-99.99,,,-99.99,,2013-03-10 14:52:00,
2013-03-10 08:01:00,37.0,35.0,-100.00,South,180,0.0,1.0,95,-99.99,,,-99.99,,2013-03-10 15:01:00,
2013-03-10 08:11:00,37.0,36.0,-100.00,SW,225,0.0,2.0,95,-99.99,,,-99.99,,2013-03-10 15:11:00,
2013-03-10 08:32:00,36.0,35.0,-100.00,SE,135,1.0,2.0,95,-99.99,,,-99.99,,2013-03-10 15:32:00,
2013-03-10 08:52:00,36.0,35.0,-100.00,East,90,0.0,2.0,95,-99.99,,,-99.99,,2013-03-10 15:52:00,
2013-03-10 09:01:00,36.0,35.0,-100.00,East,90,0.0,2.0,95,-99.99,,,-99.99,,2013-03-10 16:01:00,
2013-03-10 09:11:00,36.0,35.0,-100.00,North,0,0.0,1.0,95,-99.99,,,-99.99,,2013-03-10 16:11:00,
2013-03-10 09:21:00,36.0,35.0,-100.00,South,180,1.0,2.0,95,-99.99,,,-99.99,,2013-03-10 16:21:00,
2013-03-10 09:31:00,36.0,35.0,-100.00,South,180,1.0,2.0,95,-99.99,,,-99.99,,2013-03-10 16:31:00,
2013-03-10 10:51:00,42.0,37.0,-100.00,SW,225,3.0,8.0,82,-99.99,,,-99.99,,2013-03-10 17:51:00,
2013-03-10 11:01:00,43.0,36.0,-100.00,NW,315,1.0,6.0,78,-99.99,,,-99.99,,2013-03-10 18:01:00,
2013-03-10 11:11:00,43.0,36.0,-100.00,NW,315,1.0,6.0,78,-99.99,,,-99.99,,2013-03-10 18:11:00,
2013-03-10 11:21:00,44.0,36.0,-100.00,SW,225,5.0,9.0,73,-99.99,,,-99.99,,2013-03-10 18:21:00,
2013-03-10 11:31:00,44.0,36.0,-100.00,SW,225,5.0,9.0,73,-99.99,,,-99.99,,2013-03-10 18:31:00,
2013-03-10 11:41:00,44.0,36.0,-100.00,SW,225,5.0,9.0,73,-99.99,,,-99.99,,2013-03-10 18:41:00,
2013-03-10 11:52:00,47.0,36.0,-100.00,NW,315,3.0,10.0,65,-99.99,,,-99.99,,2013-03-10 18:52:00,
2013-03-10 12:01:00,48.0,36.0,-100.00,South,180,8.0,11.0,64,-99.99,,,-99.99,,2013-03-10 19:01:00,
2013-03-10 12:11:00,48.0,36.0,-100.00,South,180,8.0,11.0,64,-99.99,,,-99.99,,2013-03-10 19:11:00,
2013-03-10 12:21:00,49.0,37.0,-100.00,South,180,5.0,11.0,63,-99.99,,,-99.99,,2013-03-10 19:21:00,
2013-03-10 12:31:00,49.0,37.0,-100.00,South,180,4.0,10.0,63,-99.99,,,-99.99,,2013-03-10 19:31:00,
2013-03-10 12:41:00,49.0,37.0,-100.00,South,180,4.0,10.0,63,-99.99,,,-99.99,,2013-03-10 19:41:00,
2013-03-10 12:53:00,49.0,36.0,-100.00,South,180,6.0,9.0,62,-99.99,,,-99.99,,2013-03-10 19:53:00,
2013-03-10 13:02:00,49.0,36.0,-100.00,SW,225,6.0,10.0,60,-99.99,,,-99.99,,2013-03-10 20:02:00,
2013-03-10 13:12:00,49.0,36.0,-100.00,SW,225,6.0,10.0,60,-99.99,,,-99.99,,2013-03-10 20:12:00,
2013-03-10 13:22:00,50.0,37.0,-100.00,South,180,4.0,9.0,61,-99.99,,,-99.99,,2013-03-10 20:22:00,
2013-03-10 13:32:00,49.0,37.0,-100.00,SW,225,7.0,11.0,63,-99.99,,,-99.99,,2013-03-10 20:32:00,
2013-03-10 13:42:00,49.0,37.0,-100.00,SW,225,7.0,11.0,63,-99.99,,,-99.99,,2013-03-10 20:42:00,
2013-03-10 13:53:00,50.0,37.0,-100.00,SW,225,4.0,13.0,61,-99.99,,,-99.99,,2013-03-10 20:53:00,
2013-03-10 14:02:00,50.0,37.0,-100.00,SW,225,4.0,14.0,61,-99.99,,,-99.99,,2013-03-10 21:02:00,
2013-03-10 14:12:00,50.0,37.0,-100.00,SW,225,4.0,14.0,61,-99.99,,,-99.99,,2013-03-10 21:12:00,
2013-03-10 14:22:00,50.0,39.0,-100.00,SW,225,5.0,15.0,65,-99.99,,,-99.99,,2013-03-10 21:22:00,
2013-03-10 14:32:00,49.0,40.0,-100.00,SW,225,9.0,17.0,71,-99.99,,,-99.99,,2013-03-10 21:32:00,
2013-03-10 14:42:00,49.0,40.0,-100.00,SW,225,9.0,17.0,71,-99.99,,,-99.99,,2013-03-10 21:42:00,
2013-03-10 14:52:00,49.0,41.0,-100.00,South,180,4.0,12.0,76,-99.99,,,-99.99,,2013-03-10 21:52:00,
2013-03-10 15:02:00,49.0,42.0,-100.00,SW,225,4.0,12.0,78,-99.99,,,-99.99,,2013-03-10 22:02:00,
2013-03-10 15:12:00,49.0,42.0,-100.00,SW,225,4.0,12.0,78,-99.99,,,-99.99,,2013-03-10 22:12:00,
2013-03-10 15:22:00,48.0,42.0,-100.00,SW,225,8.0,16.0,78,-99.99,,,-99.99,,2013-03-10 22:22:00,
2013-03-10 15:32:00,47.0,43.0,-100.00,SW,225,7.0,14.0,85,-99.99,,,-99.99,,2013-03-10 22:32:00,
2013-03-10 15:42:00,47.0,43.0,-100.00,SW,225,7.0,14.0,85,-99.99,,,-99.99,,2013-03-10 22:42:00,
2013-03-10 15:53:00,47.0,44.0,-100.00,SW,225,3.0,11.0,87,-99.99,,,-99.99,,2013-03-10 22:53:00,
2013-03-10 16:02:00,48.0,44.0,-100.00,SW,225,6.0,10.0,85,-99.99,,,-99.99,,2013-03-10 23:02:00,
2013-03-10 16:12:00,48.0,44.0,-100.00,SW,225,6.0,10.0,85,-99.99,,,-99.99,,2013-03-10 23:12:00,
2013-03-10 16:22:00,49.0,43.0,-100.00,SW,225,3.0,9.0,82,-99.99,,,-99.99,,2013-03-10 23:22:00,
2013-03-10 16:32:00,49.0,43.0,-100.00,SW,225,4.0,9.0,80,-99.99,,,-99.99,,2013-03-10 23:32:00,
2013-03-10 16:42:00,49.0,43.0,-100.00,SW,225,4.0,9.0,80,-99.99,,,-99.99,,2013-03-10 23:42:00,
2013-03-10 16:52:00,49.0,42.0,-100.00,SW,225,3.0,14.0,79,-99.99,,,-99.99,,2013-03-10 23:52:00,
2013-03-10 17:02:00,49.0,42.0,-100.00,SW,225,3.0,10.0,77,-99.99,,,-99.99,,2013-03-11 00:02:00,
2013-03-10 17:12:00,49.0,42.0,-100.00,SW,225,3.0,10.0,77,-99.99,,,-99.99,,2013-03-11 00:12:00,
2013-03-10 17:22:00,49.0,42.0,-100.00,North,0,2.0,6.0,78,-99.99,,,-99.99,,2013-03-11 00:22:00,
2013-03-10 17:32:00,49.0,42.0,-100.00,West,270,1.0,8.0,77,-99.99,,,-99.99,,2013-03-11 00:32:00,
2013-03-10 17:42:00,49.0,42.0,-100.00,West,270,1.0,8.0,77,-99.99,,,-99.99,,2013-03-11 00:42:00,
2013-03-10 17:53:00,49.0,42.0,-100.00,SW,225,3.0,8.0,75,-99.99,,,-99.99,,2013-03-11 00:53:00,
2013-03-10 18:02:00,49.0,42.0,-100.00,North,0,1.0,8.0,76,-99.99,,,-99.99,,2013-03-11 01:02:00,
2013-03-10 18:12:00,49.0,42.0,-100.00,North,0,1.0,8.0,76,-99.99,,,-99.99,,2013-03-11 01:12:00,
2013-03-10 18:22:00,49.0,42.0,-100.00,SW,225,3.0,10.0,78,-99.99,,,-99.99,,2013-03-11 01:22:00,
2013-03-10 18:32:00,48.0,42.0,-100.00,SW,225,8.0,17.0,81,-99.99,,,-99.99,,2013-03-11 01:32:00,
2013-03-10 18:42:00,48.0,42.0,-100.00,SW,225,8.0,17.0,81,-99.99,,,-99.99,,2013-03-11 01:42:00,
2013-03-10 18:53:00,48.0,43.0,-100.00,SW,225,4.0,9.0,83,-99.99,,,-99.99,,2013-03-11 01:53:00,
2013-03-10 19:02:00,48.0,43.0,-100.00,SW,225,4.0,9.0,83,-99.99,,,-99.99,,2013-03-11 02:02:00,
2013-03-10 19:12:00,48.0,43.0,-100.00,SW,225,4.0,9.0,83,-99.99,,,-99.99,,2013-03-11 02:12:00,
2013-03-10 19:22:00,47.0,43.0,-100.00,SW,225,4.0,8.0,84,-99.99,,,-99.99,,2013-03-11 02:22:00,
2013-03-10 19:32:00,47.0,43.0,-100.00,SW,225,2.0,7.0,85,-99.99,,,-99.99,,2013-03-11 02:32:00,
2013-03-10 19:42:00,47.0,43.0,-100.00,SW,225,2.0,7.0,85,-99.99,,,-99.99,,2013-03-11 02:42:00,
2013-03-10 19:52:00,47.0,43.0,-100.00,SW,225,4.0,9.0,85,-99.99,,,-99.99,,2013-03-11 02:52:00,
2013-03-10 20:02:00,47.0,43.0,-100.00,SW,225,4.0,9.0,84,-99.99,,,-99.99,,2013-03-11 03:02:00,
2013-03-10 20:12:00,47.0,43.0,-100.00,SW,225,4.0,9.0,84,-99.99,,,-99.99,,2013-03-11 03:12:00,
2013-03-10 20:22:00,47.0,43.0,-100.00,South,180,2.0,6.0,84,-99.99,,,-99.99,,2013-03-11 03:22:00,
2013-03-10 20:32:00,47.0,43.0,-100.00,SW,225,4.0,12.0,86,-99.99,,,-99.99,,2013-03-11 03:32:00,
2013-03-10 20:42:00,47.0,43.0,-100.00,SW,225,4.0,12.0,86,-99.99,,,-99.99,,2013-03-11 03:42:00,
2013-03-10 20:52:00,47.0,44.0,-100.00,SW,225,4.0,8.0,90,-99.99,,,-99.99,,2013-03-11 03:52:00,
2013-03-10 21:02:00,46.0,44.0,-100.00,SW,225,5.0,10.0,93,-99.99,,,-99.99,,2013-03-11 04:02:00,
2013-03-10 21:12:00,46.0,44.0,-100.00,SW,225,5.0,10.0,93,-99.99,,,-99.99,,2013-03-11 04:12:00,
2013-03-10 21:22:00,46.0,45.0,-100.00,SW,225,5.0,9.0,96,-99.99,,,-99.99,,2013-03-11 04:22:00,
2013-03-10 21:32:00,46.0,45.0,-100.00,SW,225,3.0,9.0,97,-99.99,,,-99.99,,2013-03-11 04:32:00,
2013-03-10 21:42:00,46.0,45.0,-100.00,SW,225,3.0,9.0,97,-99.99,,,-99.99,,2013-03-11 04:42:00,
2013-03-10 21:53:00,45.0,45.0,-100.00,SW,225,6.0,9.0,98,-99.99,,,-99.99,,2013-03-11 04:53:00,
2013-03-10 22:02:00,45.0,45.0,-100.00,SW,225,5.0,10.0,98,-99.99,,,-99.99,,2013-03-11 05:02:00,
2013-03-10 22:11:00,45.0,45.0,-100.00,SW,225,5.0,10.0,98,-99.99,,,-99.99,,2013-03-11 05:11:00,
2013-03-10 22:22:00,45.0,45.0,-100.00,SW,225,4.0,10.0,98,-99.99,,,-99.99,,2013-03-11 05:22:00,
2013-03-10 22:32:00,46.0,45.0,-100.00,SW,225,3.0,6.0,98,-99.99,,,-99.99,,2013-03-11 05:32:00,
2013-03-10 22:42:00,46.0,45.0,-100.00,SW,225,3.0,6.0,98,-99.99,,,-99.99,,2013-03-11 05:42:00,
2013-03-10 22:52:00,46.0,45.0,-100.00,SW,225,4.0,10.0,98,-99.99,,,-99.99,,2013-03-11 05:52:00,
2013-03-10 23:02:00,46.0,45.0,-100.00,SW,225,6.0,8.0,98,-99.99,,,-99.99,,2013-03-11 06:02:00,
2013-03-10 23:12:00,46.0,45.0,-100.00,SW,225,6.0,8.0,98,-99.99,,,-99.99,,2013-03-11 06:12:00,
2013-03-10 23:22:00,46.0,45.0,-100.00,SW,225,2.0,8.0,98,-99.99,,,-99.99,,2013-03-11 06:22:00,
2013-03-10 23:32:00,45.0,45.0,-100.00,SW,225,4.0,8.0,98,-99.99,,,-99.99,,2013-03-11 06:32:00,
2013-03-10 23:42:00,45.0,45.0,-100.00,SW,225,4.0,8.0,98,-99.99,,,-99.99,,2013-03-11 06:42:00,
2013-03-10 23:53:00,46.0,45.0,-100.00,SW,225,5.0,10.0,98,-99.99,,,-99.99,,2013-03-11 06:53:00,